Location: Unspecified
(0.0000°N, 0.0000°E)
Time: 20:28:41
(UTC+00:00)

Vanguard 1 Rocket - Pass Details

Date: 27 March 2018
Orbit: 649 x 4227 km, 34.3° (Epoch: 16 November)

Event Time Altitude Azimuth Distance (km) Brightness Sun altitude
Rises 03:26:03 0° 252° (WSW) 8,229 - -39.8°
Reaches altitude 10° 03:34:43 10° 237° (WSW) 7,414 - -37.7°
Exits shadow 03:42:51 17° 220° (SW) 6,747 11.4 -35.6°
Maximum altitude 03:52:12 21° 194° (SSW) 6,187 11.4 -33.3°
Drops below altitude 10° 04:06:50 10° 151° (SSE) 6,151 11.9 -29.6°
Sets 04:12:59 0° 135° (SE) 6,567 12.4 -28.1°
